[[{"header":{"parameterUnit":"m.s-1","parameterCategory":1,"la1":30.2991,"la2":30.254,"lo1":-89.0895,"lo2":-89.0444,"dy":0.0017,"dx":0.0017,"nx":28,"ny":28,"refTime":"2025-07-19T09:00:00:Z","depth":0,"parameterNumber":2,"parameterNumberName":"U-component_of_WINDS"},"data":[0,0,0,0,0,0,0,0,0,0,0,0,0,0,0,0,0,0,0,0,0,0,0,0,0,0,0,0,0,0,0,0,0,0,0,0,0,0,0,0,0,0,0,0,0,0,0,0,0,0,0,0,0,0,0,0,0,0,5.1093,5.1095,0,5.1212,5.1213,5.1214,5.1136,5.1132,5.1129,5.1125,5.1246,5.1252,5.1259,0,0,0,0,0,0,0,0,0,0,0,0,0,5.0798,5.0804,5.1093,5.1095,5.1096,5.1211,5.1213,5.1215,5.1136,5.1132,5.1128,5.1124,5.1244,5.1251,5.1259,0,0,0,0,0,0,0,0,0,0,0,0,0,5.0922,5.0805,5.1093,5.1071,5.107,5.1211,5.1213,5.1215,5.1137,5.1132,5.1127,5.1122,5.1241,5.125,5.126,5.1429,0,0,5.129,5.1295,0,0,0,0,0,0,0,0,5.0915,5.0933,5.1073,5.1073,5.1072,5.1153,5.1153,5.1287,5.1139,5.1112,5.1125,5.1119,5.1219,5.1231,5.1265,5.1434,5.144,5.1291,5.1297,5.1301,5.1304,0,0,0,0,0,0,0,5.0907,5.0927,5.114,5.1075,5.1075,5.1055,5.1066,5.1178,5.1194,5.1114,5.1108,5.1124,5.1218,5.1255,5.1267,5.1441,5.1291,5.13,5.1306,5.1309,5.1752,5.1757,0,0,0,0,0,0,5.09,5.0921,5.1136,5.1143,5.0979,5.1064,5.1077,5.1133,5.1193,5.1197,5.1128,5.1119,5.1241,5.1255,5.1271,5.1469,5.1301,5.131,5.1316,5.1746,5.1753,5.1759,0,0,0,0,0,0,5.0894,5.092,5.1131,5.1031,5.1056,5.1075,5.1138,5.1138,5.1175,5.1204,5.1206,5.1163,5.1237,5.1257,5.1389,5.1472,5.1315,5.1324,5.1739,5.1748,5.1756,5.1869,0,0,0,0,0,0,5.0886,5.0918,5.0983,5.1033,5.1062,5.1249,5.1143,5.1144,5.1192,5.1182,5.1237,5.1241,5.1235,5.1375,5.1399,5.1483,5.1331,5.1732,5.1743,5.1754,5.1857,5.188,5.1899,0,0,0,0,0,5.0876,5.1011,5.0987,5.1013,5.1143,5.1254,5.127,5.126,5.1199,5.1264,5.1282,5.1239,5.146,5.1389,5.1416,5.1504,5.1726,5.174,5.1753,5.1848,5.1876,5.1899,0,0,0,0,0,0,5.097,5.1017,5.0991,5.1146,5.1197,5.124,5.1321,5.129,5.1359,5.1347,5.1332,5.1345,5.1482,5.1507,5.1427,5.1668,5.1583,5.1602,5.1647,5.1673,5.1694,5.1684,5.134,0,0,0,0,0,5.1009,5.1095,5.1131,5.1265,5.1291,5.1303,5.135,5.1338,5.139,5.1411,5.1439,5.149,5.157,5.1624,5.17,5.1862,5.1871,5.1935,5.1956,5.1973,5.1989,5.2073,5.2101,5.1803,5.1803,5.1802,0,0,5.109,5.1126,5.1182,5.1285,5.1322,5.1411,5.1321,5.1419,5.1484,5.1426,5.1551,5.1574,5.163,5.1777,5.1843,5.1801,5.2074,5.199,5.2003,5.201,5.2089,5.2117,5.2142,5.1812,5.181,5.1809,0,0,5.1282,5.132,5.1433,5.1473,5.1531,5.1537,5.1565,5.1613,5.1626,5.1752,5.1709,5.1786,5.1926,5.1967,5.2006,5.2213,5.2175,5.2239,5.2347,5.2429,5.2452,5.2473,5.2543,5.2569,5.2255,5.2255,5.2255,0,5.1375,5.1507,5.1495,5.1596,5.1641,5.1593,5.1707,5.1746,5.1826,5.1858,5.1811,5.1983,5.2018,5.2172,5.2223,5.2257,5.2286,5.2231,5.245,5.2471,5.249,5.2557,5.2584,5.2262,5.2261,5.2261,5.226,0,5.1617,5.1709,5.1794,5.1872,5.1927,5.2034,5.2038,5.2095,5.2079,5.209,5.2217,5.2258,5.2339,5.2376,5.2361,5.2528,5.2499,5.2452,5.2365,5.2525,5.2588,5.2613,5.2272,5.227,5.2268,5.2266,0,0,5.187,5.1939,5.197,5.2004,5.2064,5.2135,5.224,5.2319,5.2367,5.2425,5.251,5.2629,5.2585,5.2629,5.2619,5.2692,5.2848,5.2634,5.2635,5.2669,5.303,5.3063,5.3093,5.2825,5.283,5.2834,5.3024,0,5.2062,5.2243,5.2236,5.2405,5.2488,5.2444,5.2534,5.258,5.2594,5.2666,5.2681,5.2764,5.2701,5.2727,5.2797,5.2815,5.292,5.2801,5.2902,5.2905,5.2885,5.3126,5.3162,5.3339,5.3049,5.3053,5.3056,0,5.231,5.2375,5.2552,5.2598,5.2633,5.2715,5.2786,5.2856,5.2907,5.2912,5.2961,5.2939,5.3043,5.2956,5.3098,5.3017,5.3058,5.3073,5.308,5.3085,5.2988,5.3135,5.3396,5.3421,5.3095,5.3092,5.3089,0,5.2472,5.2604,5.2726,5.2757,5.2815,5.2872,5.2899,5.2945,5.2993,5.3056,5.3086,5.3161,5.3201,5.3258,5.3255,5.3194,5.3398,5.3312,5.3402,5.3402,5.3444,5.3441,5.3711,5.3478,5.3477,5.3477,5.3476,0,5.2685,5.2795,5.2799,5.2874,5.2994,5.2985,5.3104,5.3125,5.3166,5.3243,5.321,5.3283,5.3277,5.3351,5.335,5.3465,5.3485,5.3489,5.3487,5.349,5.3489,5.3514,5.35,5.3484,5.3482,5.3481,5.348,0,5.2885,5.2893,5.3022,5.3067,5.308,5.3167,5.3204,5.3274,5.3285,5.3383,5.3405,5.3421,5.3506,5.351,5.3608,5.3607,5.3746,5.3732,5.3728,5.3724,5.3812,5.3802,5.4105,5.4143,5.3888,5.3891,5.3893,0,5.3019,5.3101,5.3154,5.3203,5.3233,5.3314,5.3362,5.3356,5.3407,5.3471,5.3533,5.3615,5.3679,5.3816,5.3836,5.3909,5.3894,5.3996,5.3905,5.3905,5.3891,5.3885,5.3891,5.4012,5.4015,5.4017,5.4019,0,5.3254,5.3253,5.3324,5.3397,5.3455,5.3512,5.3565,5.3607,5.3607,5.3666,5.3752,5.3802,5.3901,5.3981,5.4053,5.4079,5.4048,5.4048,5.4072,5.4074,5.4066,5.4067,5.3772,5.404,5.4038,5.4036,5.4035,5.4034,5.3422,5.3492,5.3539,5.3619,5.3658,5.3708,5.3775,5.3794,5.3866,5.3945,5.3938,5.4032,5.408,5.4173,5.4205,5.4278,5.4243,5.4279,5.4287,5.4295,5.4302,5.4058,5.4291,5.4291,5.429,5.429,5.4289,0,5.3651,5.368,5.3753,5.3827,5.389,5.3857,5.3914,5.3967,5.4051,5.4098,5.4162,5.4259,5.4336,5.4363,5.4438,5.4491,5.4478,5.451,5.4504,5.451,5.4331,5.4301,5.4519,5.4519,5.4518,5.4518,5.4518,5.4518,5.3778,5.3894,5.3899,5.4034,5.4061,5.4153,5.4187,5.4233,5.427,5.438,5.4444,5.4461,5.4499,5.4576,5.4645,5.465,5.4678,5.4715,5.4714,5.4546,5.4523,5.4501,5.4472,5.4722,5.4722,5.4886,5.4887,5.4889]},{"header":{"parameterUnit":"m.s-1","parameterCategory":1,"la1":30.2991,"la2":30.254,"lo1":-89.0895,"lo2":-89.0444,"dy":0.0017,"dx":0.0017,"nx":28,"ny":28,"refTime":"2025-07-19T09:00:00:Z","depth":0,"parameterNumber":3,"parameterNumberName":"V-component_of_WINDS"},"data":[0,0,0,0,0,0,0,0,0,0,0,0,0,0,0,0,0,0,0,0,0,0,0,0,0,0,0,0,0,0,0,0,0,0,0,0,0,0,0,0,0,0,0,0,0,0,0,0,0,0,0,0,0,0,0,0,0,0,2.661,2.6611,0,2.6677,2.6678,2.6679,2.6649,2.6648,2.6646,2.6644,2.6713,2.6716,2.672,0,0,0,0,0,0,0,0,0,0,0,0,0,2.6453,2.6456,2.661,2.6611,2.6612,2.6677,2.6678,2.6679,2.665,2.6648,2.6646,2.6644,2.6712,2.6716,2.672,0,0,0,0,0,0,0,0,0,0,0,0,0,2.6521,2.6457,2.661,2.6605,2.6605,2.6677,2.6678,2.6679,2.665,2.6648,2.6645,2.6643,2.6711,2.6715,2.672,2.6801,0,0,2.6736,2.6738,0,0,0,0,0,0,0,0,2.6517,2.6527,2.6605,2.6605,2.6606,2.6652,2.6648,2.672,2.6651,2.6633,2.6644,2.6642,2.6695,2.6701,2.6719,2.6804,2.6807,2.6736,2.6739,2.6741,2.6743,0,0,0,0,0,0,0,2.6513,2.6524,2.6636,2.6606,2.6606,2.6598,2.6605,2.6662,2.6677,2.6634,2.6632,2.6641,2.6695,2.6714,2.672,2.6808,2.6736,2.6741,2.6744,2.6746,2.6961,2.6964,0,0,0,0,0,0,2.6508,2.652,2.6634,2.6639,2.6554,2.6603,2.6611,2.664,2.6676,2.6679,2.6643,2.6639,2.6707,2.6715,2.6723,2.6819,2.6741,2.6746,2.6749,2.6959,2.6962,2.6965,0,0,0,0,0,0,2.6505,2.6519,2.6632,2.6579,2.6593,2.6609,2.6641,2.6643,2.6662,2.6683,2.6685,2.666,2.6705,2.6716,2.6782,2.6821,2.6748,2.6753,2.6956,2.696,2.6963,2.7012,0,0,0,0,0,0,2.65,2.6518,2.6549,2.658,2.6596,2.669,2.6644,2.6646,2.6671,2.6667,2.67,2.6703,2.6704,2.6774,2.6787,2.6826,2.6757,2.6952,2.6957,2.6962,2.7007,2.7017,2.7026,0,0,0,0,0,2.6495,2.656,2.6551,2.6565,2.6635,2.6693,2.6701,2.6702,2.6674,2.6706,2.6718,2.6702,2.6814,2.6781,2.6795,2.6837,2.695,2.6956,2.6962,2.7003,2.7015,2.7026,0,0,0,0,0,0,2.6534,2.6564,2.6554,2.6631,2.666,2.6687,2.6727,2.6715,2.6752,2.6746,2.6745,2.6753,2.6821,2.6835,2.6798,2.6916,2.6878,2.6887,2.6904,2.6916,2.6925,2.692,2.6761,0,0,0,0,0,2.6551,2.6596,2.662,2.6685,2.67,2.6711,2.6736,2.6734,2.6763,2.6775,2.6792,2.6821,2.6862,2.689,2.693,2.7009,2.7015,2.7044,2.7053,2.7061,2.7069,2.711,2.7123,2.6985,2.6985,2.6985,0,0,2.6588,2.661,2.6638,2.6694,2.6715,2.6761,2.6722,2.6771,2.6805,2.6782,2.6845,2.6859,2.6891,2.6963,2.6996,2.6978,2.7108,2.7069,2.7075,2.7079,2.7118,2.7131,2.7143,2.6989,2.6988,2.6988,0,0,2.6678,2.67,2.6756,2.6779,2.6812,2.6818,2.6832,2.6861,2.687,2.6933,2.6916,2.6956,2.7028,2.705,2.7072,2.7168,2.7154,2.7181,2.7231,2.7271,2.7282,2.7292,2.7325,2.7338,2.7189,2.7189,2.7189,0,2.672,2.6788,2.6787,2.6838,2.6862,2.6843,2.69,2.6922,2.6966,2.6983,2.6961,2.705,2.707,2.7147,2.717,2.7188,2.7203,2.7178,2.7281,2.729,2.7299,2.7331,2.7344,2.7192,2.7192,2.7191,2.7191,0,2.6837,2.6884,2.6926,2.6969,2.6997,2.7051,2.7057,2.7087,2.7081,2.709,2.7154,2.7177,2.722,2.7238,2.7234,2.7314,2.7301,2.728,2.7242,2.7316,2.7346,2.7358,2.7197,2.7195,2.7194,2.7194,0,0,2.6954,2.6995,2.701,2.7029,2.7063,2.7099,2.7151,2.7194,2.7218,2.7249,2.7292,2.7352,2.7333,2.7357,2.7354,2.739,2.7464,2.7364,2.7365,2.7381,2.7552,2.7567,2.7582,2.7454,2.7456,2.7458,2.7549,0,2.7046,2.7138,2.7138,2.7222,2.7265,2.7247,2.7292,2.7318,2.7327,2.7364,2.7373,2.7416,2.7387,2.7401,2.7436,2.7447,2.7498,2.7441,2.7493,2.7495,2.7486,2.7598,2.7614,2.7699,2.7561,2.7563,2.7564,0,2.7166,2.72,2.7289,2.7316,2.7334,2.7374,2.7412,2.7448,2.7476,2.748,2.7506,2.7498,2.7549,2.7509,2.758,2.7541,2.7562,2.7571,2.7574,2.7579,2.7534,2.7605,2.7726,2.7739,2.7583,2.7582,2.758,0,2.7242,2.731,2.7372,2.7388,2.7421,2.745,2.7465,2.749,2.7515,2.7548,2.7564,2.7602,2.7623,2.7653,2.7655,2.7626,2.7726,2.7686,2.773,2.773,2.7752,2.775,2.7878,2.7766,2.7766,2.7765,2.7765,0,2.7345,2.7399,2.7406,2.7444,2.7504,2.7503,2.7562,2.7574,2.7597,2.7636,2.7623,2.7659,2.766,2.7697,2.7699,2.7757,2.7766,2.777,2.777,2.7771,2.7771,2.7785,2.7779,2.7769,2.7768,2.7767,2.7767,0,2.744,2.7446,2.7512,2.7537,2.7545,2.7588,2.761,2.7645,2.7652,2.7702,2.7713,2.7725,2.7768,2.7772,2.7823,2.7824,2.7893,2.7887,2.7884,2.7882,2.7926,2.7921,2.8067,2.8085,2.7962,2.7963,2.7964,0,2.7505,2.7546,2.7576,2.7601,2.7617,2.7659,2.7684,2.7683,2.771,2.7744,2.7775,2.7817,2.785,2.792,2.7932,2.797,2.7964,2.8012,2.7969,2.7969,2.7964,2.7961,2.7965,2.802,2.8022,2.8023,2.8024,0,2.7619,2.762,2.7657,2.7695,2.7725,2.7755,2.7783,2.7804,2.7807,2.7837,2.7881,2.7907,2.7958,2.7999,2.8036,2.805,2.8037,2.8037,2.8049,2.8051,2.8047,2.8049,2.7906,2.8034,2.8033,2.8032,2.8031,2.8031,2.77,2.7736,2.7762,2.7803,2.7824,2.785,2.7884,2.7895,2.7932,2.7974,2.7971,2.8019,2.8044,2.8093,2.811,2.8146,2.813,2.8148,2.8152,2.8157,2.8161,2.8041,2.8153,2.8153,2.8153,2.8152,2.8152,0,2.7813,2.7829,2.7867,2.7906,2.7938,2.7923,2.7952,2.798,2.8023,2.8048,2.808,2.813,2.8169,2.8184,2.8223,2.8249,2.8244,2.8259,2.8257,2.826,2.8173,2.8159,2.8263,2.8263,2.8263,2.8263,2.8263,2.8263,2.7876,2.7935,2.7938,2.8007,2.8022,2.8069,2.8087,2.8111,2.813,2.8187,2.8219,2.8229,2.8249,2.8289,2.8324,2.8327,2.8341,2.8359,2.836,2.8278,2.8267,2.8256,2.8242,2.8362,2.8362,2.8443,2.8444,2.8445]}]]